This is the latest recevied weather packets stored in our database for station/object WY7ATH-2. If no packets are shown the sender has not sent any weather packets the latest 10 day(s).
| Time | Temp. | Humidity | Pressure | Rain* | Wind** | Luminosity | Snow |
|---|---|---|---|---|---|---|---|
| 1787866090 | 26.11° C | - | - | 9.14 mm | 1.34 m/s, 150° | - | - |
| 1787865493 | 26.11° C | - | - | 9.14 mm | 3.13 m/s, 94° | - | - |
| 1787864295 | 26.11° C | - | - | 10.92 mm | 1.34 m/s, 104° | - | - |
| 1787862504 | 29.44° C | - | - | 10.92 mm | 0 m/s | - | - |
| 1787861907 | 27.78° C | - | - | 10.92 mm | 0 m/s | - | - |
| 1787861310 | 27.22° C | - | - | 10.92 mm | 0 m/s | - | - |
| 1787860112 | 26.67° C | - | - | 17.53 mm | 0.45 m/s, 80° | - | - |
| 1787858918 | 27.78° C | - | - | 17.53 mm | 0 m/s | - | - |
| 1787858321 | 26.11° C | - | - | 17.53 mm | 0.89 m/s, 80° | - | - |
| 1787857720 | 26.67° C | - | - | 17.53 mm | 3.58 m/s, 142° | - | - |
| 1787855332 | 28.33° C | - | - | 20.57 mm | 1.34 m/s, 138° | - | - |
| 1787854735 | 28.33° C | - | - | 20.57 mm | 3.58 m/s, 55° | - | - |
| 1787854134 | 28.89° C | - | - | 20.57 mm | 1.79 m/s, 60° | - | - |
| 1787853537 | 28.33° C | - | - | 20.57 mm | 0 m/s | - | - |
| 1787852343 | 27.78° C | - | - | 21.08 mm | 0 m/s | - | - |
| 1787851745 | 26.67° C | - | - | 21.08 mm | 0.89 m/s, 100° | - | - |
| 1787851148 | 27.22° C | - | - | 21.08 mm | 0 m/s | - | - |
| 1787850548 | 31.11° C | - | - | 21.08 mm | 0 m/s | - | - |
| 1787849951 | 28.89° C | - | - | 21.08 mm | 0 m/s | - | - |
| 1787848160 | 28.33° C | - | - | 19.3 mm | 1.79 m/s, 24° | - | - |
| 1787847563 | 27.22° C | - | - | 19.3 mm | 2.24 m/s, 27° | - | - |
| 1787846365 | 30° C | - | - | 19.3 mm | 0.45 m/s, 4° | - | - |
| 1787845171 | 30° C | - | - | 15.75 mm | 3.13 m/s, 346° | - | - |
| 1787843977 | 28.89° C | - | - | 15.75 mm | 2.24 m/s, 349° | - | - |
| 1787843376 | 28.33° C | - | - | 15.75 mm | 0 m/s | - | - |
* Rain latest hour (hover to see other rain measurements)
** Current wind speed in m/s (hover to see current wind gust speed)